OBJECT A, 66053

Orbit data source: Space-Track

You're viewing an Uncataloged Satellite

Recently launched and/or uncataloged satellites may have evolving metadata. Metadata may include but not limited to: Owner, Maufacturer, Bus, Motor, and Mission.

OBJECT A, 66053 is a satellite in SSO that was launched on Sun, 19 Oct 2025 UTC launched from the Jiuquan Satellite Launch Center, China (JSC). Unknown objects in Earth's orbit typically refer to objects detected orbiting the Earth but have not yet been identified or cataloged. These objects could be anything from previously untracked satellites, spent rocket stages, debris from satellite collisions, or even natural meteoroids temporarily captured by Earth's gravity.

Loading next visibility...
Identifier
66053, 2025-234A
Orbit
SSO
Country
Flag of TBDTBD
Related business
None
Manufacturer
Unknown
Mission
Civil Radar Imaging
Bus & Motor
Unknown
Mass
Unknown
Launch date (UTC)
2025-10-19 (8 months ago)
Launch vehicle
Unknown
Launch site
Jiuquan Satellite Launch Center, China (JSC)
Object type
Unknown
Shape & HBR
Box + 2 Pan, 4.4 m
Radar Cross Section
2.315 m², Large (>1 m²)

Expand to show TLE details & history
Last TLE update: 16 hours ago

TLE from 16 hours ago
0 OBJECT A
1 66053U 25234A   26171.19796951  .00040343  00000-0  98258-3 0  9999
2 66053  97.4276 242.6685 0011294 145.8011 214.3965 15.40750586 37345
Epoch: 2026-06-20T04:45Z
TLE epoch observation values (Epoch: 2026-06-20T04:45:04.565Z)
Latitude
-0.00003°
Longitude
-97.01656°
Altitude
453.372 km
Speed
7.637 km/s
True Right ascension
16h 10m 40s
True Declination
0° 00' 00"
Sunlit
Object was in full shadow at epoch
Visualization orbit readout
Latitude
Unknown
Longitude
Unknown
Altitude
Unknown
Speed
Unknown
Apparent Right ascension
Unknown
Apparent Declination
Unknown
Sunlit
N/A
Visualization observer readout
Local Sidereal Time
07:18:46
Azimuth
Unknown
Elevation
Unknown
Doppler factor
Unknown
Orbital elements
Apogee altitude
448.533 km
Perigee altitude
433.131 km
Semi-major axis
6,818.969 km
Eccentricity
0.00113
Inclination
97.4276°
RAAN
242.6685°
Arg. of periapsis
145.8011°
True anomaly
214.32347°
Mean anomaly
214.3965°
Eccentric anomaly
214.35998°
Mean motion
3.85447 °/min
Orbital period
93.4 mins
BSTAR
0.00098258
Loading maneuver chart data...
Computing Atmospheric mass density...
Loading historical data...
Loading historical data...
Loading historical data...
Loading historical data...
Loading historical data...
Loading historical data...
Loading historical data...
Other satellites on launch #234 in the year 2025 (2025-10-19 UTC)

Documentation

Showing up to 5 results
|